Content
SEND FEEDBACK

Daily
Averages
Monthly
Summary
United States of America

OCONTO, WISCONSIN


Home > North America > United States > Wisconsin
Elevation: 199 meters     Latitude: 44 54N     Longitude: 087 56W

WEATHER
 
SELECT A DAY
Number of Records: 465,730;   Date Range: 1/1/95 - 12/17/14
 
SHARE

PRINT THIS DATA

[ ← Previous Day ]
WEATHER ALMANAC - 31 JANUARY, 2013
[ Next Day → ]
[ °F ]   °C
Weather ElementAverageHighLow
Temperature-11 °C-9 °C (12:15 pm)-14 °C (10:35 pm)
Dewpoint-14.6 °C-11 °C (4:35 am)-19 °C (10:55 pm)
Humidity76.1 %100 % (4:35 am)57 % (10:55 am)
Barometer1006.4 hPa1015.2 hPa (11:15 pm)998 hPa (12:35 am)
Wind Speed11.9 km/h20.4 km/h (12:35 am)
Wind Gust35.2 km/h (1:15 am)
Weather ElementAverage
Visibility13.4 km
Wind DirectionNW (313.4 °)

Weather ElementTotal
Precipitation---
Heating Degree Days29.8 (Base 18.3)
Averaged from 67 records on 31 January, 2013
WEATHER CONDITIONS BREAKOUT
WIND DIRECTION BREAKOUT
WEATHER BY HOUR - 31 JANUARY, 2013
[ °F ]   °C
Local TimeTemperatureDewpointHumidityBarometerVisibilityWind DirectionWind SpeedGust SpeedPrecipitationEventsConditions
12:35 AM-10 °C-14 °C73 %998 hPa16.1 kmWNW (300°)20.4 km/h25.9 km/hOvercast
12:55 AM-10 °C-14 °C73 %998.3 hPa16.1 kmNNW (330°)16.7 km/h33.3 km/hOvercast
1:15 AM-10 °C-14 °C73 %998.6 hPa16.1 kmNW (310°)16.7 km/h35.2 km/hOvercast
1:35 AM-11 °C-14 °C79 %999 hPa16.1 kmWNW (300°)11.1 km/hOvercast
1:55 AM-11 °C-14 °C79 %999.3 hPa16.1 kmNW (310°)13 km/hOvercast
2:15 AM-11 °C-15 °C73 %999.7 hPa16.1 kmNW (320°)14.8 km/hOvercast
2:35 AM-11 °C-16 °C67 %999.7 hPa12.9 kmNW (320°)14.8 km/hOvercast
2:55 AM-11 °C-15 °C73 %999.7 hPa16.1 kmNW (310°)14.8 km/h25.9 km/hOvercast
3:15 AM-11 °C-16 °C67 %999.7 hPa16.1 kmNW (310°)11.1 km/hMostly Cloudy
3:35 AM-11 °C-13 °C85 %1000 hPa16.1 kmWNW (290°)9.3 km/hOvercast
3:55 AM-11 °C-12 °C92 %1000.3 hPa16.1 kmWNW (290°)9.3 km/hOvercast
4:15 AM-11 °C-12 °C92 %1000.3 hPa14.5 kmWNW (300°)13 km/hOvercast
4:35 AM-11 °C-11 °C100 %1000.7 hPa9.7 kmWNW (300°)11.1 km/h29.6 km/hOvercast
4:55 AM-11 °C-12 °C92 %1000.7 hPa11.3 kmWNW (300°)11.1 km/hOvercast
5:15 AM-11 °C-14 °C79 %1001 hPa16.1 kmWNW (290°)11.1 km/hOvercast
5:35 AM-11 °C-16 °C67 %1001 hPa14.5 kmWNW (300°)9.3 km/hOvercast
6:15 AM-12 °C-16 °C73 %1001.7 hPa14.5 kmWNW (290°)11.1 km/hOvercast
6:35 AM-12 °C-14 °C85 %1002 hPa16.1 kmWNW (290°)11.1 km/hOvercast
6:55 AM-12 °C-13 °C92 %1002 hPa16.1 kmWNW (290°)7.4 km/hMostly Cloudy
7:15 AM-12 °C-13 °C92 %1002.4 hPa16.1 kmWNW (290°)5.6 km/hPartly Cloudy
7:35 AM-12 °C-13 °C92 %1002.7 hPa16.1 kmWNW (290°)9.3 km/hMostly Cloudy
7:55 AM-12 °C-15 °C79 %1003.4 hPa16.1 kmWNW (290°)7.4 km/hOvercast
8:15 AM-12 °C-17 °C67 %1003.7 hPa16.1 kmWNW (290°)11.1 km/hOvercast
8:35 AM-12 °C-17 °C67 %1004.1 hPa16.1 kmWest (280°)11.1 km/hOvercast
8:55 AM-12 °C-14 °C85 %1004.4 hPa16.1 kmWNW (290°)7.4 km/hOvercast
9:15 AM-11 °C-12 °C92 %1004.7 hPa16.1 kmWNW (300°)13 km/hOvercast
9:35 AM-11 °C-12 °C92 %1005.1 hPa16.1 kmWNW (300°)9.3 km/hOvercast
9:55 AM-11 °C-14 °C79 %1005.4 hPa11.3 kmNW (310°)11.1 km/hOvercast
10:15 AM-11 °C-17 °C62 %1005.8 hPa8 kmNW (310°)9.3 km/hOvercast
10:35 AM-11 °C-17 °C62 %1005.8 hPa6.4 kmNNW (330°)11.1 km/hOvercast
10:55 AM-10 °C-17 °C57 %1006.1 hPa8 kmNNW (330°)13 km/hOvercast
11:15 AM-10 °C-14 °C73 %1006.1 hPa4.8 kmNW (310°)14.8 km/hOvercast
11:35 AM-10 °C-12 °C86 %1006.1 hPa4.8 kmNW (310°)9.3 km/hOvercast
11:55 AM-10 °C-11 °C93 %1006.1 hPa9.7 kmNW (320°)9.3 km/hOvercast
12:15 PM-9 °C-11 °C86 %1006.1 hPa14.5 kmNW (320°)13 km/hOvercast
12:35 PM-9 °C-13 °C73 %1006.1 hPa14.5 kmNNW (340°)14.8 km/h25.9 km/hOvercast
12:55 PM-9 °C-14 °C68 %1006.4 hPa4.8 kmNNW (340°)16.7 km/hOvercast
1:15 PM-9 °C-16 °C58 %1006.8 hPa16.1 kmNW (310°)11.1 km/hOvercast
1:35 PM-9 °C-16 °C58 %1006.8 hPa16.1 kmNNW (340°)13 km/hOvercast
1:55 PM-9 °C-14 °C68 %1007.1 hPa12.9 kmNNW (330°)9.3 km/hOvercast
2:15 PM-9 °C-13 °C73 %1007.5 hPa11.3 kmNorth (350°)13 km/hOvercast
2:35 PM-9 °C-12 °C79 %1007.8 hPa8 kmNNW (330°)14.8 km/hOvercast
2:55 PM-9 °C-13 °C73 %1007.8 hPa16.1 kmNW (320°)9.3 km/hOvercast
3:15 PM-9 °C-14 °C68 %1008.1 hPa12.9 kmNW (320°)9.3 km/hMostly Cloudy
3:35 PM-9 °C-15 °C62 %1008.5 hPa16.1 kmNNW (330°)11.1 km/hOvercast
3:55 PM-9 °C-13 °C73 %1008.8 hPa16.1 kmNorth (350°)13 km/hOvercast
4:15 PM-10 °C-11 °C93 %1009.1 hPa3.2 kmNorth (360°)16.7 km/hOvercast
4:35 PM-10 °C-13 °C79 %1009.5 hPa11.3 kmNNW (340°)16.7 km/hMostly Cloudy
4:55 PM-10 °C-13 °C79 %1009.8 hPa8 kmNorth (350°)16.7 km/hMostly Cloudy
5:15 PM-10 °C-16 °C62 %1010.2 hPa11.3 kmNNW (340°)13 km/hOvercast
5:35 PM-11 °C-17 °C62 %1010.8 hPa16.1 kmNorth (350°)16.7 km/hOvercast
6:15 PM-11 °C-15 °C73 %1011.5 hPa16.1 kmNNW (340°)14.8 km/hOvercast
6:35 PM-11 °C-15 °C73 %1011.9 hPa16.1 kmNNW (330°)11.1 km/hOvercast
6:55 PM-12 °C-16 °C73 %1012.2 hPa16.1 kmNNW (330°)9.3 km/hOvercast
7:15 PM-12 °C-17 °C67 %1012.5 hPa16.1 kmNNW (330°)9.3 km/hOvercast
7:35 PM-12 °C-17 °C67 %1012.9 hPa16.1 kmNW (320°)11.1 km/hOvercast
8:15 PM-12 °C-16 °C73 %1013.2 hPa12.9 kmNW (310°)11.1 km/hMostly Cloudy
8:35 PM-12 °C-15 °C79 %1013.5 hPa8 kmWNW (300°)13 km/hOvercast
8:55 PM-12 °C-15 °C79 %1013.9 hPa11.3 kmNW (310°)11.1 km/hOvercast
9:15 PM-13 °C-14 °C92 %1013.9 hPa8 kmNW (310°)14.8 km/h25.9 km/hOvercast
9:35 PM-13 °C-17 °C73 %1014.2 hPa11.3 kmWNW (300°)11.1 km/hOvercast
9:55 PM-13 °C-18 °C67 %1014.2 hPa8 kmNW (310°)13 km/hOvercast
10:15 PM-13 °C-17 °C73 %1014.6 hPa16.1 kmWNW (300°)9.3 km/hOvercast
10:35 PM-14 °C-16 °C85 %1014.6 hPa16.1 kmWNW (300°)11.1 km/hMostly Cloudy
10:55 PM-14 °C-19 °C67 %1014.9 hPa16.1 kmWNW (300°)11.1 km/hOvercast
11:15 PM-14 °C-19 °C67 %1015.2 hPa16.1 kmWNW (290°)11.1 km/hMostly Cloudy
11:35 PM-14 °C-16 °C85 %1015.2 hPa16.1 kmWNW (300°)7.4 km/hPartly Cloudy
Hourly data recorded from KMNM, located 0 kilometers away from Oconto, Wisconsin







STORIES FROM OUR PARTNERS